[[{"header":{"parameterUnit":"m.s-1","parameterCategory":1,"la1":30.2991,"la2":30.254,"lo1":-89.0895,"lo2":-89.0444,"dy":0.0017,"dx":0.0017,"nx":28,"ny":28,"refTime":"2025-11-29T09:00:00:Z","depth":0,"parameterNumber":2,"parameterNumberName":"U-component_of_WINDS"},"data":[0,0,0,0,0,0,0,0,0,0,0,0,0,0,0,0,0,0,0,0,0,0,0,0,0,0,0,0,0,0,0,0,0,0,0,0,0,0,0,0,0,0,0,0,0,0,0,0,0,0,0,0,0,0,0,0,0,0,-6.7426,-6.7427,0,-6.7536,-6.7538,-6.7539,-6.7409,-6.7405,-6.74,-6.7395,-6.751,-6.7517,-6.7524,0,0,0,0,0,0,0,0,0,0,0,0,0,-6.7103,-6.711,-6.7426,-6.7427,-6.7429,-6.7536,-6.7538,-6.7539,-6.741,-6.7404,-6.7398,-6.7393,-6.7507,-6.7516,-6.7525,0,0,0,0,0,0,0,0,0,0,0,0,0,-6.7232,-6.7112,-6.7426,-6.7377,-6.7374,-6.7536,-6.7538,-6.754,-6.7411,-6.7404,-6.7397,-6.739,-6.7504,-6.7515,-6.7526,-6.7742,0,0,-6.7561,-6.7566,0,0,0,0,0,0,0,0,-6.7225,-6.7244,-6.7383,-6.7381,-6.7378,-6.7452,-6.7466,-6.7607,-6.7413,-6.7397,-6.7395,-6.7387,-6.7496,-6.7508,-6.7544,-6.7747,-6.7752,-6.7562,-6.7569,-6.7574,-6.7577,0,0,0,0,0,0,0,-6.7216,-6.7238,-6.747,-6.7385,-6.7382,-6.735,-6.736,-6.7492,-6.7486,-6.7398,-6.7389,-6.7404,-6.7493,-6.7534,-6.7546,-6.7754,-6.7562,-6.7572,-6.7579,-6.7583,-6.8135,-6.8143,0,0,0,0,0,0,-6.7213,-6.7232,-6.7466,-6.7473,-6.7282,-6.7362,-6.7373,-6.7435,-6.7484,-6.7485,-6.741,-6.7397,-6.7518,-6.7533,-6.755,-6.7802,-6.7574,-6.7584,-6.7591,-6.8127,-6.8137,-6.8145,0,0,0,0,0,0,-6.7206,-6.7235,-6.7462,-6.735,-6.7376,-6.7375,-6.7446,-6.7441,-6.7481,-6.7493,-6.7492,-6.7452,-6.7513,-6.7534,-6.7694,-6.7804,-6.7589,-6.76,-6.8118,-6.813,-6.8141,-6.8311,0,0,0,0,0,0,-6.7197,-6.7233,-6.7315,-6.7353,-6.7383,-6.7605,-6.7453,-6.7449,-6.7501,-6.7486,-6.7533,-6.7533,-6.7509,-6.7678,-6.7705,-6.7816,-6.7609,-6.8108,-6.8124,-6.8138,-6.8295,-6.8327,-6.8354,0,0,0,0,0,-6.7186,-6.7359,-6.732,-6.7349,-6.7485,-6.7611,-6.7628,-6.7596,-6.7511,-6.7592,-6.76,-6.7532,-6.7789,-6.7695,-6.7725,-6.7841,-6.8101,-6.8119,-6.8136,-6.8282,-6.8321,-6.8354,0,0,0,0,0,0,-6.7335,-6.7363,-6.732,-6.751,-6.7559,-6.7589,-6.7691,-6.7639,-6.7713,-6.7696,-6.7653,-6.7665,-6.7835,-6.7855,-6.775,-6.8051,-6.7931,-6.7955,-6.8031,-6.8068,-6.8097,-6.8087,-6.7618,0,0,0,0,0,-6.7391,-6.749,-6.751,-6.7676,-6.7702,-6.7693,-6.7747,-6.7718,-6.7767,-6.7787,-6.7806,-6.7857,-6.7948,-6.801,-6.8095,-6.8299,-6.8305,-6.8393,-6.8422,-6.8446,-6.8467,-6.8573,-6.8612,-6.8204,-6.8203,-6.8203,0,0,-6.7505,-6.7533,-6.7599,-6.7706,-6.7741,-6.7844,-6.7712,-6.7828,-6.7904,-6.7805,-6.7956,-6.7973,-6.8026,-6.8208,-6.8289,-6.823,-6.8582,-6.8469,-6.8488,-6.8496,-6.8596,-6.8634,-6.8668,-6.8216,-6.8213,-6.8212,0,0,-6.7766,-6.7798,-6.7938,-6.7976,-6.8029,-6.8022,-6.8056,-6.8094,-6.81,-6.8252,-6.8179,-6.8269,-6.8429,-6.8469,-6.8511,-6.8787,-6.8726,-6.8816,-6.8968,-6.9072,-6.9104,-6.9132,-6.9228,-6.9263,-6.8837,-6.8838,-6.8838,0,-6.7901,-6.8055,-6.8018,-6.8138,-6.8187,-6.8102,-6.8243,-6.8281,-6.836,-6.8396,-6.8328,-6.8525,-6.8555,-6.8744,-6.8811,-6.8849,-6.8884,-6.8809,-6.9103,-6.9131,-6.9156,-6.9247,-6.9283,-6.8848,-6.8847,-6.8846,-6.8845,0,-6.8217,-6.8325,-6.8432,-6.8509,-6.857,-6.8701,-6.8683,-6.8749,-6.8715,-6.8715,-6.8869,-6.8903,-6.8992,-6.9035,-6.9004,-6.922,-6.918,-6.9109,-6.8987,-6.9206,-6.929,-6.9325,-6.8863,-6.8859,-6.8856,-6.8853,0,0,-6.8574,-6.8628,-6.8667,-6.87,-6.8753,-6.8835,-6.8962,-6.9048,-6.9105,-6.9163,-6.9266,-6.9403,-6.9336,-6.9384,-6.9356,-6.9448,-6.9661,-6.9365,-6.9365,-6.9416,-6.9897,-6.9948,-6.9989,-6.9622,-6.9629,-6.9634,-6.9892,0,-6.8832,-6.905,-6.902,-6.9229,-6.9326,-6.9247,-6.9357,-6.9401,-6.9405,-6.9488,-6.9492,-6.9588,-6.9494,-6.9522,-6.9609,-6.9617,-6.9756,-6.9598,-6.9716,-6.9721,-6.9702,-7.0034,-7.0089,-7.033,-6.9925,-6.993,-6.9934,0,-6.9163,-6.9231,-6.9449,-6.9485,-6.9525,-6.9624,-6.9699,-6.9781,-6.9829,-6.9825,-6.9878,-6.9833,-6.9959,-6.9837,-7.0009,-6.9902,-6.9949,-6.996,-6.9969,-6.9976,-6.9839,-7.0047,-7.0407,-7.0442,-6.9986,-6.9982,-6.9979,0,-6.9396,-6.9544,-6.9692,-6.9723,-6.977,-6.9841,-6.9863,-6.9904,-6.9958,-7.0025,-7.0058,-7.014,-7.0184,-7.0248,-7.0227,-7.014,-7.0402,-7.0279,-7.0401,-7.0401,-7.0457,-7.0453,-7.0826,-7.0494,-7.0493,-7.0492,-7.0492,0,-6.9686,-6.9822,-6.9797,-6.9888,-7.0038,-7.0003,-7.0152,-7.0165,-7.0202,-7.0294,-7.0232,-7.032,-7.0288,-7.0374,-7.0359,-7.0502,-7.0523,-7.0522,-7.0516,-7.0526,-7.0525,-7.0553,-7.0535,-7.0502,-7.05,-7.0498,-7.0496,0,-6.9971,-6.996,-7.0117,-7.0147,-7.0158,-7.0267,-7.0293,-7.0378,-7.0377,-7.0494,-7.052,-7.0518,-7.0616,-7.0601,-7.0711,-7.07,-7.0877,-7.0853,-7.0861,-7.0854,-7.0975,-7.0962,-7.1376,-7.1427,-7.1065,-7.1069,-7.1072,0,-7.0155,-7.0258,-7.0299,-7.0356,-7.0383,-7.0476,-7.0529,-7.0499,-7.0557,-7.0619,-7.0697,-7.0789,-7.0861,-7.1021,-7.1029,-7.1112,-7.1086,-7.1226,-7.1098,-7.1104,-7.1084,-7.1077,-7.1086,-7.125,-7.1254,-7.1257,-7.126,0,-7.0482,-7.0471,-7.055,-7.0628,-7.0693,-7.0753,-7.0807,-7.0857,-7.0832,-7.0901,-7.0999,-7.1055,-7.1166,-7.1257,-7.1335,-7.1358,-7.1305,-7.1301,-7.1332,-7.1342,-7.1341,-7.1339,-7.0925,-7.129,-7.1287,-7.1285,-7.1284,-7.1282,-7.0719,-7.0805,-7.0847,-7.0937,-7.0974,-7.1026,-7.1106,-7.1115,-7.1196,-7.1283,-7.1261,-7.1372,-7.1417,-7.1515,-7.1547,-7.1633,-7.1582,-7.1629,-7.164,-7.1651,-7.1664,-7.133,-7.1648,-7.1647,-7.1646,-7.1646,-7.1645,0,-7.1039,-7.1062,-7.1145,-7.1221,-7.1292,-7.1237,-7.1293,-7.1356,-7.1454,-7.15,-7.1571,-7.1684,-7.1772,-7.1788,-7.1872,-7.1938,-7.1915,-7.196,-7.1953,-7.1959,-7.1707,-7.1669,-7.1977,-7.1977,-7.1977,-7.1977,-7.1977,-7.1976,-7.1213,-7.1355,-7.1349,-7.1509,-7.1531,-7.1638,-7.1675,-7.1721,-7.1757,-7.1885,-7.1958,-7.1968,-7.2001,-7.2087,-7.2165,-7.2167,-7.22,-7.2254,-7.2247,-7.201,-7.1977,-7.1945,-7.1909,-7.2262,-7.2263,-7.249,-7.2492,-7.2494]},{"header":{"parameterUnit":"m.s-1","parameterCategory":1,"la1":30.2991,"la2":30.254,"lo1":-89.0895,"lo2":-89.0444,"dy":0.0017,"dx":0.0017,"nx":28,"ny":28,"refTime":"2025-11-29T09:00:00:Z","depth":0,"parameterNumber":3,"parameterNumberName":"V-component_of_WINDS"},"data":[0,0,0,0,0,0,0,0,0,0,0,0,0,0,0,0,0,0,0,0,0,0,0,0,0,0,0,0,0,0,0,0,0,0,0,0,0,0,0,0,0,0,0,0,0,0,0,0,0,0,0,0,0,0,0,0,0,0,1.3595,1.3595,0,1.3618,1.3618,1.3618,1.3481,1.3477,1.3473,1.347,1.3496,1.3501,1.3505,0,0,0,0,0,0,0,0,0,0,0,0,0,1.3436,1.344,1.3595,1.3595,1.3596,1.3618,1.3618,1.3618,1.3482,1.3477,1.3472,1.3468,1.3495,1.35,1.3505,0,0,0,0,0,0,0,0,0,0,0,0,0,1.3487,1.3441,1.3595,1.353,1.3524,1.3618,1.3618,1.3618,1.3483,1.3477,1.3471,1.3466,1.3493,1.35,1.3506,1.3664,0,0,1.3526,1.3529,0,0,0,0,0,0,0,0,1.3484,1.3493,1.3539,1.3535,1.3529,1.354,1.3572,1.3634,1.3484,1.3499,1.347,1.3463,1.3516,1.352,1.3538,1.3665,1.3666,1.3527,1.3531,1.3533,1.3535,0,0,0,0,0,0,0,1.3481,1.3491,1.3604,1.354,1.3534,1.3501,1.3501,1.3583,1.354,1.3497,1.3487,1.3492,1.3512,1.3532,1.3537,1.3667,1.3526,1.3532,1.3536,1.3539,1.3926,1.3932,0,0,0,0,0,0,1.3486,1.3489,1.3603,1.3605,1.3491,1.3508,1.3509,1.3543,1.3539,1.3533,1.3497,1.3485,1.3523,1.353,1.3538,1.3723,1.3533,1.3539,1.3543,1.3919,1.3927,1.3934,0,0,0,0,0,0,1.3483,1.3497,1.3602,1.3544,1.3555,1.3517,1.3556,1.3546,1.3566,1.3538,1.353,1.3524,1.3519,1.3528,1.3633,1.3722,1.3542,1.3548,1.3912,1.3922,1.3931,1.4096,0,0,0,0,0,0,1.3479,1.3497,1.3556,1.3547,1.3559,1.3698,1.3562,1.3551,1.3577,1.3562,1.3562,1.3557,1.3515,1.3625,1.364,1.3728,1.3553,1.3904,1.3916,1.3928,1.4082,1.411,1.4133,0,0,0,0,0,1.3474,1.3602,1.356,1.3574,1.3632,1.3703,1.371,1.3659,1.3585,1.3644,1.3627,1.3557,1.371,1.3636,1.3653,1.3744,1.3898,1.3913,1.3927,1.4071,1.4105,1.4133,0,0,0,0,0,0,1.3624,1.36,1.3552,1.3681,1.3695,1.368,1.3753,1.3696,1.3732,1.3717,1.3652,1.3653,1.377,1.3767,1.3686,1.3897,1.3791,1.3809,1.3895,1.3927,1.3952,1.3951,1.3559,0,0,0,0,0,1.3672,1.3731,1.3707,1.3823,1.3832,1.3792,1.3821,1.378,1.3792,1.3798,1.3788,1.3803,1.3854,1.389,1.3936,1.408,1.4079,1.4151,1.4177,1.4198,1.4215,1.4293,1.4325,1.3981,1.3981,1.3981,0,0,1.3772,1.3766,1.3808,1.3853,1.3859,1.3923,1.3798,1.387,1.3918,1.3809,1.3908,1.3901,1.3914,1.404,1.4095,1.4042,1.431,1.4216,1.4233,1.4239,1.4311,1.4344,1.4373,1.3991,1.3989,1.3987,0,0,1.3988,1.3989,1.4086,1.4094,1.4104,1.4076,1.41,1.4093,1.4085,1.4182,1.4102,1.4158,1.4247,1.426,1.4279,1.4499,1.4437,1.4515,1.465,1.4727,1.4754,1.4778,1.4858,1.4888,1.4532,1.4533,1.4533,0,1.4112,1.4204,1.4144,1.4222,1.4245,1.4148,1.4247,1.4258,1.4284,1.4303,1.4241,1.4352,1.4354,1.4482,1.4536,1.4553,1.458,1.4516,1.4754,1.4778,1.4799,1.4875,1.4906,1.4542,1.4541,1.454,1.4539,0,1.4357,1.4422,1.45,1.4526,1.4557,1.4646,1.46,1.4639,1.4595,1.4574,1.4676,1.4674,1.4718,1.4745,1.4703,1.4868,1.4835,1.4765,1.4658,1.4843,1.4913,1.4942,1.4556,1.4553,1.455,1.4547,0,0,1.467,1.4661,1.4691,1.4702,1.4705,1.4755,1.4839,1.4881,1.4917,1.4938,1.5008,1.5086,1.5021,1.5042,1.5001,1.5068,1.5245,1.499,1.4989,1.5039,1.5429,1.5483,1.5518,1.5202,1.5208,1.5212,1.5429,0,1.4883,1.5026,1.4974,1.5121,1.5181,1.5089,1.5163,1.5174,1.5156,1.5206,1.5186,1.5243,1.5153,1.5165,1.5227,1.521,1.5323,1.5193,1.5269,1.5273,1.5272,1.5554,1.5612,1.5817,1.5456,1.546,1.5464,0,1.515,1.5181,1.5334,1.5328,1.5351,1.5418,1.5453,1.55,1.5511,1.5494,1.5518,1.5461,1.5545,1.5436,1.5551,1.5464,1.5491,1.5488,1.5495,1.5502,1.5382,1.5572,1.5881,1.5913,1.5506,1.5503,1.55,0,1.5367,1.5446,1.5548,1.5559,1.5554,1.5604,1.5604,1.5608,1.5638,1.5668,1.5686,1.5727,1.575,1.5783,1.574,1.5663,1.5862,1.5748,1.5852,1.5853,1.59,1.5898,1.622,1.5914,1.5913,1.5913,1.5912,0,1.5611,1.5709,1.5645,1.5708,1.5815,1.5754,1.5862,1.5852,1.5857,1.5918,1.584,1.5899,1.5837,1.589,1.5857,1.5958,1.5969,1.5958,1.5949,1.5967,1.5969,1.5986,1.5972,1.5921,1.5919,1.5917,1.5916,0,1.5872,1.5832,1.5938,1.5924,1.5922,1.6002,1.5991,1.6049,1.6025,1.6103,1.6118,1.6081,1.614,1.6099,1.6158,1.6135,1.627,1.6239,1.6266,1.6259,1.6365,1.6357,1.6712,1.6756,1.6419,1.6423,1.6425,0,1.6032,1.6105,1.6098,1.6133,1.6138,1.6194,1.6223,1.6166,1.6199,1.6217,1.6274,1.6326,1.6364,1.6462,1.6442,1.6487,1.6458,1.6579,1.6465,1.6481,1.6463,1.646,1.6468,1.6604,1.6608,1.6611,1.6613,0,1.6321,1.6297,1.6341,1.6379,1.6416,1.6443,1.6464,1.6497,1.6439,1.6481,1.6539,1.6569,1.6629,1.6682,1.6719,1.672,1.6659,1.6649,1.6676,1.6697,1.671,1.6707,1.6332,1.6642,1.6639,1.6637,1.6636,1.6634,1.6537,1.6598,1.6604,1.6655,1.6665,1.6686,1.6741,1.6724,1.6771,1.6815,1.6778,1.6849,1.6858,1.6901,1.6909,1.6965,1.6915,1.6953,1.6963,1.6974,1.699,1.6699,1.6971,1.697,1.6969,1.6968,1.6968,0,1.6824,1.6822,1.6871,1.6902,1.6944,1.6879,1.6899,1.6939,1.7002,1.7015,1.7054,1.7122,1.7173,1.7156,1.7202,1.7249,1.7222,1.7263,1.7261,1.7262,1.7031,1.7004,1.7285,1.7285,1.7284,1.7284,1.7284,1.7284,1.6978,1.7079,1.7056,1.7161,1.7158,1.7226,1.7244,1.7264,1.7274,1.7353,1.7394,1.7382,1.7384,1.7429,1.7473,1.7467,1.7489,1.7541,1.7525,1.731,1.7279,1.7249,1.7224,1.7545,1.7546,1.7752,1.7754,1.7755]}]]